TAX1612 LPFR-LPPT

Flight info

Callsign TAX1612
Flight time 0h 26m
Altitude 22000
Route ODEMI DCT VATZI
Aircraft A320/M-SDE3FGHIRWY/LB1

Departure

Time 2026-05-03 20:55
Airport Faro - Gago Coutinho International Airport (LPFR)

Arrival

Time 2026-05-03 21:21
Airport Lisbon Humberto Delgado Airport (LPPT)
Time Latitude Longitude Altitude Speed Heading
2026-05-03 20:35 37.01907 -7.96770 20 ft 0 kts
2026-05-03 20:48 37.01896 -7.96772 22 ft 4 kts
2026-05-03 20:48 37.01869 -7.96778 22 ft 4 kts
2026-05-03 20:48 37.01846 -7.96783 21 ft 4 kts 23°
2026-05-03 20:49 37.01829 -7.96802 24 ft 4 kts 78°
2026-05-03 20:49 37.01828 -7.96819 23 ft 0 kts 100°
2026-05-03 20:51 37.01827 -7.96817 22 ft 2 kts 100°
2026-05-03 20:51 37.01816 -7.96738 20 ft 17 kts 100°
2026-05-03 20:51 37.01789 -7.96552 20 ft 15 kts 101°
2026-05-03 20:52 37.01707 -7.96527 20 ft 15 kts 189°
2026-05-03 20:52 37.01617 -7.96518 21 ft 8 kts 107°
2026-05-03 20:52 37.01601 -7.96405 20 ft 19 kts 101°
2026-05-03 20:52 37.01578 -7.96245 20 ft 18 kts 101°
2026-05-03 20:53 37.01555 -7.96096 22 ft 17 kts 100°
2026-05-03 20:53 37.01536 -7.95957 20 ft 16 kts 100°
2026-05-03 20:53 37.01490 -7.95859 20 ft 13 kts 174°
2026-05-03 20:53 37.01405 -7.95852 20 ft 12 kts 186°
2026-05-03 20:54 37.01342 -7.95884 20 ft 9 kts 253°
2026-05-03 20:54 37.01435 -7.96511 21 ft 96 kts 280°
2026-05-03 20:54 37.01583 -7.97572 43 ft 147 kts 279°
2026-05-03 20:55 37.01763 -7.98817 746 ft 144 kts 280°
2026-05-03 20:55 37.01944 -8.00038 1467 ft 147 kts 283°
2026-05-03 20:55 37.02143 -8.01377 1925 ft 168 kts 282°
2026-05-03 20:55 37.02367 -8.02903 2277 ft 191 kts 282°
2026-05-03 20:56 37.02620 -8.04632 2760 ft 211 kts 282°
2026-05-03 20:56 37.02888 -8.06465 3624 ft 214 kts 281°
2026-05-03 20:56 37.03159 -8.08282 4610 ft 215 kts 283°
2026-05-03 20:56 37.03867 -8.10030 5054 ft 242 kts 310°
2026-05-03 20:57 37.05081 -8.11617 5616 ft 260 kts 311°
2026-05-03 20:57 37.06467 -8.13109 6487 ft 268 kts 327°
2026-05-03 20:57 37.08105 -8.14288 7354 ft 273 kts 328°
2026-05-03 20:57 37.09750 -8.15450 8258 ft 276 kts 328°
2026-05-03 20:58 37.11440 -8.16638 9142 ft 281 kts 328°
2026-05-03 20:58 37.13152 -8.17842 10039 ft 285 kts 327°
2026-05-03 20:58 37.14931 -8.19100 10538 ft 304 kts 327°
2026-05-03 20:58 37.16832 -8.20455 10830 ft 328 kts 327°
2026-05-03 20:59 37.18871 -8.21908 11263 ft 343 kts 327°
2026-05-03 20:59 37.20969 -8.23397 11972 ft 349 kts 327°
2026-05-03 20:59 37.23102 -8.24907 12747 ft 353 kts 327°
2026-05-03 20:59 37.25251 -8.26427 13516 ft 357 kts 327°
2026-05-03 21:00 37.27425 -8.27967 14244 ft 360 kts 326°
2026-05-03 21:00 37.28876 -8.28998 14683 ft 363 kts 326°
2026-05-03 21:00 37.31806 -8.31083 15569 ft 368 kts 326°
2026-05-03 21:00 37.34039 -8.32675 16226 ft 371 kts 325°
2026-05-03 21:01 37.36293 -8.34283 16876 ft 375 kts 325°
2026-05-03 21:01 37.38574 -8.35912 17560 ft 378 kts 325°
2026-05-03 21:01 37.40877 -8.37558 18219 ft 381 kts 325°
2026-05-03 21:01 37.43194 -8.39216 18806 ft 385 kts 325°
2026-05-03 21:02 37.45523 -8.40879 19367 ft 387 kts 325°
2026-05-03 21:02 37.47868 -8.42556 19921 ft 390 kts 324°
2026-05-03 21:02 37.50201 -8.44229 20480 ft 392 kts 324°
2026-05-03 21:02 37.52580 -8.45937 21041 ft 395 kts 324°
2026-05-03 21:03 37.54971 -8.47653 21579 ft 397 kts 324°
2026-05-03 21:03 37.57383 -8.49382 21983 ft 399 kts 324°
2026-05-03 21:03 37.59801 -8.51116 22080 ft 406 kts 324°
2026-05-03 21:03 37.62284 -8.52903 22083 ft 413 kts 324°
2026-05-03 21:04 37.64780 -8.54701 22113 ft 415 kts 324°
2026-05-03 21:04 37.67295 -8.56509 22071 ft 416 kts 324°
2026-05-03 21:04 37.69779 -8.58295 22075 ft 416 kts 324°
2026-05-03 21:04 37.72317 -8.60118 22072 ft 415 kts 324°
2026-05-03 21:05 37.74810 -8.61913 21632 ft 409 kts 324°
2026-05-03 21:05 37.77232 -8.63661 21051 ft 403 kts 324°
2026-05-03 21:05 37.79489 -8.65290 20554 ft 398 kts 324°
2026-05-03 21:05 37.81878 -8.67014 20028 ft 393 kts 325°
2026-05-03 21:06 37.84231 -8.68715 19470 ft 389 kts 325°
2026-05-03 21:06 37.86574 -8.70412 18854 ft 388 kts 325°
2026-05-03 21:06 37.88912 -8.72109 18285 ft 386 kts 325°
2026-05-03 21:06 37.91206 -8.73776 17685 ft 383 kts 325°
2026-05-03 21:07 37.93539 -8.75472 17077 ft 380 kts 326°
2026-05-03 21:07 37.95794 -8.77109 16549 ft 377 kts 326°
2026-05-03 21:07 37.98057 -8.78752 15997 ft 374 kts 326°
2026-05-03 21:07 38.00309 -8.80390 15478 ft 371 kts 326°
2026-05-03 21:08 38.02543 -8.82016 14960 ft 369 kts 326°
2026-05-03 21:08 38.04754 -8.83627 14455 ft 366 kts 326°
2026-05-03 21:08 38.06958 -8.85232 13946 ft 364 kts 326°
2026-05-03 21:08 38.09145 -8.86827 13396 ft 361 kts 326°
2026-05-03 21:09 38.11315 -8.88410 12839 ft 358 kts 326°
2026-05-03 21:09 38.13444 -8.89966 12296 ft 356 kts 326°
2026-05-03 21:09 38.15515 -8.91480 12093 ft 343 kts 326°
2026-05-03 21:09 38.17533 -8.92954 11964 ft 329 kts 326°
2026-05-03 21:10 38.19489 -8.94382 11736 ft 320 kts 326°
2026-05-03 21:10 38.21398 -8.95779 11424 ft 314 kts 326°
2026-05-03 21:10 38.23275 -8.97158 11135 ft 309 kts 326°
2026-05-03 21:10 38.25129 -8.98519 10746 ft 307 kts 326°
2026-05-03 21:11 38.26975 -8.99876 10363 ft 305 kts 326°
2026-05-03 21:11 38.28776 -9.01201 10113 ft 299 kts 326°
2026-05-03 21:11 38.30564 -9.02513 9986 ft 288 kts 326°
2026-05-03 21:11 38.32256 -9.03754 9715 ft 283 kts 326°
2026-05-03 21:12 38.33955 -9.05003 9346 ft 280 kts 326°
2026-05-03 21:12 38.35636 -9.06243 8972 ft 278 kts 327°
2026-05-03 21:12 38.37308 -9.07474 8593 ft 277 kts 327°
2026-05-03 21:12 38.38966 -9.08696 8212 ft 275 kts 327°
2026-05-03 21:13 38.40615 -9.09911 7837 ft 273 kts 327°
2026-05-03 21:13 38.42255 -9.11124 7448 ft 271 kts 327°
2026-05-03 21:13 38.43872 -9.12319 6940 ft 263 kts 327°
2026-05-03 21:13 38.45396 -9.13440 6790 ft 243 kts 327°
2026-05-03 21:14 38.46810 -9.14481 6408 ft 235 kts 327°
2026-05-03 21:14 38.48216 -9.15519 5982 ft 234 kts 327°
2026-05-03 21:14 38.49619 -9.16556 5704 ft 231 kts 327°
2026-05-03 21:14 38.51007 -9.17582 5408 ft 230 kts 327°
2026-05-03 21:15 38.52384 -9.18600 5126 ft 228 kts 327°
2026-05-03 21:15 38.53744 -9.19608 4868 ft 225 kts 328°
2026-05-03 21:15 38.55098 -9.20610 4584 ft 223 kts 328°
2026-05-03 21:15 38.56433 -9.21600 4325 ft 220 kts 328°
2026-05-03 21:16 38.57735 -9.22557 4195 ft 212 kts 332°
2026-05-03 21:16 38.59116 -9.23086 3986 ft 209 kts 352°
2026-05-03 21:16 38.60530 -9.22939 3766 ft 203 kts 13°
2026-05-03 21:16 38.61826 -9.22290 3533 ft 194 kts 19°
2026-05-03 21:17 38.63028 -9.21649 3265 ft 183 kts 18°
2026-05-03 21:17 38.63792 -9.21243 3101 ft 177 kts 18°
2026-05-03 21:17 38.65281 -9.20450 2793 ft 168 kts 19°
2026-05-03 21:17 38.66323 -9.19894 2569 ft 156 kts 18°
2026-05-03 21:18 38.67255 -9.19396 2376 ft 140 kts 18°
2026-05-03 21:18 38.68150 -9.18921 2175 ft 135 kts 18°
2026-05-03 21:18 38.68993 -9.18472 2006 ft 132 kts 17°
2026-05-03 21:18 38.69841 -9.18021 1823 ft 131 kts 19°
2026-05-03 21:19 38.70682 -9.17573 1648 ft 131 kts 18°
2026-05-03 21:19 38.71528 -9.17122 1467 ft 132 kts 17°
2026-05-03 21:19 38.72379 -9.16668 1287 ft 132 kts 18°
2026-05-03 21:19 38.73223 -9.16217 1105 ft 131 kts 18°
2026-05-03 21:20 38.74070 -9.15765 929 ft 132 kts 19°
2026-05-03 21:20 38.74929 -9.15314 772 ft 133 kts 21°
2026-05-03 21:20 38.75786 -9.14844 574 ft 134 kts 19°
2026-05-03 21:20 38.76642 -9.14384 374 ft 134 kts 20°
2026-05-03 21:21 38.77430 -9.13967 364 ft 103 kts 22°
2026-05-03 21:21 38.77951 -9.13691 365 ft 68 kts 22°
2026-05-03 21:21 38.78304 -9.13454 364 ft 50 kts 48°
2026-05-03 21:21 38.78383 -9.13295 364 ft 5 kts 127°
2026-05-03 21:22 38.78348 -9.13273 362 ft 6 kts 168°
2026-05-03 21:22 38.78302 -9.13282 361 ft 8 kts 199°
2026-05-03 21:22 38.78186 -9.13337 362 ft 27 kts 203°
2026-05-03 21:22 38.78001 -9.13412 356 ft 28 kts 175°
2026-05-03 21:23 38.77805 -9.13360 346 ft 28 kts 172°
2026-05-03 21:23 38.77600 -9.13320 338 ft 30 kts 176°
2026-05-03 21:23 38.77387 -9.13270 338 ft 32 kts 168°
2026-05-03 21:23 38.77165 -9.13216 336 ft 33 kts 167°
2026-05-03 21:24 38.77103 -9.13189 336 ft 3 kts 106°
2026-05-03 21:24 38.77110 -9.13148 335 ft 5 kts 76°
2026-05-03 21:24 38.77115 -9.13117 337 ft 0 kts 79°
2026-05-03 21:24 38.77116 -9.13111 337 ft 0 kts 79°